Flag for Turkmenistan Weather past 2 weeks in Ashgabat, Turkmenistan

Now
91 °F

Scattered clouds.


Feels Like: 87 °F
Forecast: 64 / 94 °F
Wind: 8 mph from Northeast

Location: Ashgabat

Current Time: Jul 30, 2014 at 4:09:04 PM

Latest Report: Jul 30, 2014 at 3:00 PM


Visibility: N/A

Pressure: 29.89 "Hg

Humidity: 9%

Dew point: 25 °F

Location of AshgabatLocation

Historic Weather in Ashgabat — Graph

°F

Ashgabat temperature yesterday

Maximum temperature yesterday: 93 °F (at 3:00 PM)
Minimum temperature yesterday: 77 °F (at 6:00 AM)
Average temperature yesterday: 85 °F

Past Weeks' High & Low Weather Summary

 TemperatureHumidityPressure
High108 °F (Jul 27, 5:00 PM)43% (Jul 20, 7:00 AM)29.95 "Hg (Jul 20, 7:00 AM)
Low68 °F (Jul 18, 6:00 AM)6% (Jul 26, 3:30 PM)29.50 "Hg (Jul 20, 2:00 AM)
Average90 °F18%29.73 "Hg
* Reported Jul 15 3:00 PM — Jul 30 3:00 PM, Ashgabat, Weather by CustomWeather, © 2014

Note: Actual official high and low records may vary slightly from our data, if they occured in-between our weather recording intervals... More about our weather records

Advertising

Ashgabat weather history for previous 24 hours

 ConditionsComfort  
Time TempWeatherWind HumidityBarometerVisibility
3:00 PM
Jul 30
91 °FScattered clouds.8 mph9%29.89 "HgN/A
2:00 PM91 °FScattered clouds.8 mph10%29.92 "HgN/A
1:00 PM90 °FBroken clouds.8 mph11%29.92 "HgN/A
12:00 PM88 °FPartly sunny.6 mph12%29.95 "HgN/A
11:00 AM86 °FScattered clouds.3 mph11%29.95 "HgN/A
10:00 AM82 °FScattered clouds.6 mph14%29.95 "HgN/A
9:00 AM79 °FScattered clouds.3 mph16%29.92 "HgN/A
8:00 AM79 °FScattered clouds.3 mph17%29.92 "HgN/A
7:00 AM75 °FPassing clouds.1 mph19%29.92 "HgN/A
6:00 AM75 °FPartly cloudy.3 mph19%29.92 "HgN/A
5:00 AM73 °FPassing clouds.1 mph25%29.89 "HgN/A
4:00 AM73 °FPassing clouds.3 mph31%29.86 "HgN/A
3:00 AM77 °FPassing clouds.3 mph18%29.86 "HgN/A
2:00 AM77 °FPassing clouds.3 mph18%29.86 "HgN/A
1:00 AM79 °FPassing clouds.3 mph17%29.86 "HgN/A
12:00 AM81 °FPassing clouds.3 mph16%29.86 "HgN/A
11:00 PM
Jul 29
82 °FPassing clouds.6 mph14%29.89 "HgN/A
10:00 PM82 °FPartly cloudy.3 mph13%29.86 "HgN/A
9:00 PM84 °FBroken clouds.8 mph12%29.86 "HgN/A
8:00 PM88 °FBroken clouds.6 mph13%29.83 "HgN/A
7:00 PM90 °FBroken clouds.8 mph12%29.83 "HgN/A
6:00 PM91 °FScattered clouds.6 mph11%29.83 "HgN/A
5:00 PM91 °FScattered clouds.10 mph11%29.83 "HgN/A
4:00 PM91 °FScattered clouds.8 mph10%29.83 "HgN/A
Weather by CustomWeather, © 2014

See weather overviewHow to use our weather pages